TURKSAT 4A

Last updated on Dec. 5, 2020, 6:14 a.m. UTC

1 39522U 14007A   20339.75950199  .00000162  00000-0  00000-0 0  9994
2 39522   0.0308 277.9400 0005240 345.4679 126.0415  1.00272083 24729
UTC
Height (km)
Latitude
Longitude
Inclination
Orbital Period
UTC large
Height (km)
Speed (km/s)
/
Latitude / Longitude
Inclination (degrees)
Orbital Period (minutes)
Azimuth
Elevation
Range (km)
Doppler Factor
iOS Compass Heading
iOS Angle

Next 30 passes for location: Hong Kong

Rise time Rise Azimuth (degrees) Set time Set Azimuth (degrees) Duration Max altitude (degrees)

No matching passes for this satellites